Location: Boiro
(42.6475°N, 8.8834°W)
Time: 01:34:28
(UTC+01:00)

Transit 2A Rocket - Pass Details

Date: 03 December 2021
Orbit: 584 x 917 km, 66.7° (Epoch: 23 January)

Event Time Altitude Azimuth Distance (km) Brightness Sun altitude
Rises 18:25:56 0° 326° (NNW) 3,557 8.5 -4.6°
Reaches altitude 10° 18:28:31 10° 324° (NW) 2,597 7.9 -5.1°
Maximum altitude 18:34:32 67° 243° (WSW) 945 5.8 -6.1°
Drops below altitude 10° 18:40:09 10° 162° (SSE) 2,428 7.7 -7.0°
Sets 18:42:30 0° 160° (SSE) 3,310 8.3 -7.4°
